SAS87T ESGG-EKCH

Flight info

Callsign SAS87T
Flight time 0h 33m
Altitude 19000
Route TOPLA L996 ERNOV
Aircraft A343/H-SDE2E3FGHIJ4J5M1RWXY/LB1D1

Departure

Time 2026-04-25 09:24
Airport Göteborg Landvetter Airport (ESGG)

Arrival

Time 2026-04-25 09:57
Airport Copenhagen Kastrup Airport (EKCH)
Time Latitude Longitude Altitude Speed Heading
2026-04-25 09:10 57.66672 12.29203 520 ft 0 kts 116°
2026-04-25 09:18 57.66677 12.29184 520 ft 3 kts 116°
2026-04-25 09:18 57.66686 12.29153 520 ft 3 kts 114°
2026-04-25 09:18 57.66690 12.29116 520 ft 3 kts 68°
2026-04-25 09:18 57.66680 12.29086 520 ft 1 kts 31°
2026-04-25 09:19 57.66679 12.29085 520 ft 0 kts 31°
2026-04-25 09:21 57.66680 12.29087 520 ft 1 kts 31°
2026-04-25 09:21 57.66720 12.29118 520 ft 11 kts 22°
2026-04-25 09:21 57.66787 12.29051 520 ft 14 kts 302°
2026-04-25 09:21 57.66868 12.29027 520 ft 15 kts 22°
2026-04-25 09:22 57.66989 12.29136 520 ft 23 kts 26°
2026-04-25 09:22 57.67152 12.29284 520 ft 27 kts 26°
2026-04-25 09:22 57.67324 12.29438 520 ft 28 kts 25°
2026-04-25 09:22 57.67403 12.29452 520 ft 8 kts 333°
2026-04-25 09:23 57.67450 12.29320 520 ft 16 kts 290°
2026-04-25 09:23 57.67442 12.29082 519 ft 20 kts 244°
2026-04-25 09:23 57.67372 12.28973 519 ft 18 kts 208°
2026-04-25 09:23 57.67361 12.28962 519 ft 1 kts 207°
2026-04-25 09:24 57.67215 12.28828 518 ft 56 kts 206°
2026-04-25 09:24 57.66673 12.28334 516 ft 116 kts 206°
2026-04-25 09:24 57.65816 12.27545 696 ft 147 kts 214°
2026-04-25 09:24 57.64881 12.26638 1251 ft 161 kts 216°
2026-04-25 09:25 57.63780 12.25573 1819 ft 196 kts 212°
2026-04-25 09:25 57.62463 12.24389 2349 ft 223 kts 211°
2026-04-25 09:25 57.60987 12.23139 3031 ft 246 kts 204°
2026-04-25 09:25 57.59202 12.22724 3733 ft 268 kts 185°
2026-04-25 09:26 57.57328 12.22596 4832 ft 270 kts 186°
2026-04-25 09:26 57.55440 12.22548 5957 ft 274 kts 180°
2026-04-25 09:26 57.53520 12.22997 6947 ft 282 kts 175°
2026-04-25 09:26 57.51557 12.23585 7891 ft 289 kts 176°
2026-04-25 09:27 57.49549 12.24176 8826 ft 295 kts 178°
2026-04-25 09:27 57.47525 12.24750 9728 ft 301 kts 179°
2026-04-25 09:27 57.45372 12.25337 10305 ft 320 kts 179°
2026-04-25 09:27 57.43076 12.25945 10705 ft 346 kts 179°
2026-04-25 09:28 57.40635 12.26603 11182 ft 361 kts 179°
2026-04-25 09:28 57.38153 12.27282 11854 ft 369 kts 179°
2026-04-25 09:28 57.35558 12.27991 12647 ft 375 kts 179°
2026-04-25 09:28 57.32993 12.28685 13417 ft 380 kts 179°
2026-04-25 09:29 57.30351 12.29395 14056 ft 388 kts 180°
2026-04-25 09:29 57.27658 12.30118 14735 ft 394 kts 180°
2026-04-25 09:29 57.24929 12.30850 15428 ft 399 kts 180°
2026-04-25 09:29 57.22166 12.31590 16139 ft 404 kts 180°
2026-04-25 09:30 57.19367 12.32336 16868 ft 409 kts 181°
2026-04-25 09:30 57.16533 12.33090 17570 ft 414 kts 181°
2026-04-25 09:30 57.13660 12.33853 18229 ft 420 kts 181°
2026-04-25 09:30 57.10753 12.34620 18631 ft 423 kts 181°
2026-04-25 09:31 57.07821 12.35357 18757 ft 432 kts 182°
2026-04-25 09:31 57.04796 12.36082 18761 ft 442 kts 181°
2026-04-25 09:31 57.01735 12.36821 18751 ft 444 kts 181°
2026-04-25 09:31 56.98673 12.37575 18766 ft 444 kts 181°
2026-04-25 09:32 56.95613 12.38337 18777 ft 444 kts 181°
2026-04-25 09:32 56.92556 12.39097 18779 ft 444 kts 181°
2026-04-25 09:32 56.89497 12.39856 18782 ft 444 kts 181°
2026-04-25 09:32 56.86439 12.40612 18788 ft 443 kts 181°
2026-04-25 09:33 56.83387 12.41365 18792 ft 442 kts 181°
2026-04-25 09:33 56.80349 12.42113 18656 ft 438 kts 181°
2026-04-25 09:33 56.77375 12.42856 18431 ft 426 kts 181°
2026-04-25 09:33 56.74474 12.43582 18146 ft 417 kts 181°
2026-04-25 09:34 56.71604 12.44286 17888 ft 415 kts 181°
2026-04-25 09:34 56.68752 12.44974 17616 ft 414 kts 181°
2026-04-25 09:34 56.65901 12.45658 17350 ft 412 kts 181°
2026-04-25 09:34 56.63062 12.46340 17086 ft 411 kts 181°
2026-04-25 09:35 56.60241 12.47021 16815 ft 406 kts 181°
2026-04-25 09:35 56.57494 12.47691 16415 ft 402 kts 181°
2026-04-25 09:35 56.54730 12.48360 15936 ft 400 kts 181°
2026-04-25 09:35 56.51973 12.49024 15477 ft 399 kts 181°
2026-04-25 09:36 56.49233 12.49682 14998 ft 396 kts 181°
2026-04-25 09:36 56.46507 12.50338 14495 ft 394 kts 180°
2026-04-25 09:36 56.43800 12.50988 14048 ft 391 kts 180°
2026-04-25 09:36 56.41108 12.51634 13587 ft 389 kts 180°
2026-04-25 09:37 56.38429 12.52274 13087 ft 386 kts 180°
2026-04-25 09:37 56.35775 12.52906 12625 ft 383 kts 180°
2026-04-25 09:37 56.33153 12.53532 12315 ft 375 kts 180°
2026-04-25 09:37 56.30604 12.54147 12202 ft 363 kts 180°
2026-04-25 09:38 56.28141 12.54738 12088 ft 351 kts 181°
2026-04-25 09:38 56.25759 12.55307 11960 ft 341 kts 181°
2026-04-25 09:38 56.23434 12.55858 11830 ft 332 kts 181°
2026-04-25 09:38 56.21165 12.56392 11614 ft 327 kts 182°
2026-04-25 09:39 56.18922 12.56915 11303 ft 324 kts 181°
2026-04-25 09:39 56.16722 12.57008 10981 ft 307 kts 199°
2026-04-25 09:39 56.14728 12.55990 10719 ft 293 kts 211°
2026-04-25 09:40 56.10981 12.53401 10366 ft 291 kts 212°
2026-04-25 09:40 56.09104 12.52100 10171 ft 287 kts 212°
2026-04-25 09:40 56.07235 12.50816 9911 ft 288 kts 212°
2026-04-25 09:40 56.05372 12.49543 9728 ft 285 kts 212°
2026-04-25 09:41 56.03516 12.48278 9537 ft 286 kts 211°
2026-04-25 09:41 56.01661 12.47016 9367 ft 283 kts 211°
2026-04-25 09:41 55.99818 12.45765 9206 ft 284 kts 211°
2026-04-25 09:41 55.97973 12.44514 9045 ft 282 kts 211°
2026-04-25 09:42 55.96139 12.43272 8822 ft 283 kts 211°
2026-04-25 09:42 55.94302 12.42031 8636 ft 281 kts 211°
2026-04-25 09:42 55.92467 12.40787 8513 ft 284 kts 211°
2026-04-25 09:42 55.90626 12.39545 8371 ft 281 kts 210°
2026-04-25 09:43 55.88795 12.38314 8155 ft 282 kts 210°
2026-04-25 09:43 55.86939 12.37142 7966 ft 285 kts 205°
2026-04-25 09:43 55.84915 12.36866 7788 ft 304 kts 178°
2026-04-25 09:43 55.82936 12.38367 7593 ft 319 kts 145°
2026-04-25 09:44 55.81478 12.41354 7409 ft 322 kts 124°
2026-04-25 09:44 55.80283 12.44710 7243 ft 320 kts 122°
2026-04-25 09:44 55.79112 12.48064 7003 ft 319 kts 122°
2026-04-25 09:44 55.77927 12.51399 6798 ft 318 kts 123°
2026-04-25 09:45 55.76740 12.54694 6596 ft 317 kts 123°
2026-04-25 09:45 55.75550 12.57981 6435 ft 315 kts 123°
2026-04-25 09:45 55.74359 12.61235 6222 ft 314 kts 123°
2026-04-25 09:45 55.73173 12.64463 6012 ft 310 kts 123°
2026-04-25 09:46 55.71995 12.67664 5858 ft 308 kts 123°
2026-04-25 09:46 55.70663 12.71278 5613 ft 294 kts 124°
2026-04-25 09:46 55.69553 12.74284 5453 ft 293 kts 124°
2026-04-25 09:46 55.68436 12.77310 5338 ft 290 kts 123°
2026-04-25 09:47 55.67334 12.80295 5121 ft 288 kts 124°
2026-04-25 09:47 55.66237 12.83254 4871 ft 288 kts 124°
2026-04-25 09:47 55.65146 12.86193 4711 ft 284 kts 124°
2026-04-25 09:47 55.64057 12.89129 4638 ft 286 kts 123°
2026-04-25 09:48 55.62973 12.92048 4486 ft 284 kts 123°
2026-04-25 09:48 55.62256 12.93978 4362 ft 284 kts 123°
2026-04-25 09:48 55.61167 12.96905 4142 ft 285 kts 123°
2026-04-25 09:48 55.60075 12.99832 3950 ft 286 kts 123°
2026-04-25 09:49 55.58977 13.02758 3740 ft 285 kts 123°
2026-04-25 09:49 55.57875 13.05662 3530 ft 284 kts 124°
2026-04-25 09:49 55.56589 13.08263 3316 ft 281 kts 145°
2026-04-25 09:49 55.54857 13.09651 3115 ft 270 kts 174°
2026-04-25 09:50 55.53052 13.09485 2997 ft 255 kts 204°
2026-04-25 09:50 55.51439 13.08278 2980 ft 251 kts 214°
2026-04-25 09:50 55.49890 13.06864 2980 ft 250 kts 215°
2026-04-25 09:50 55.48348 13.05436 2979 ft 250 kts 215°
2026-04-25 09:51 55.47028 13.03599 2988 ft 236 kts 243°
2026-04-25 09:51 55.46619 13.00970 2977 ft 219 kts 279°
2026-04-25 09:51 55.47266 12.98640 2987 ft 216 kts 316°
2026-04-25 09:51 55.48449 12.97058 2985 ft 208 kts 321°
2026-04-25 09:52 55.49575 12.95599 3005 ft 191 kts 321°
2026-04-25 09:52 55.50563 12.94242 3017 ft 174 kts 317°
2026-04-25 09:52 55.51425 12.92773 3001 ft 171 kts 311°
2026-04-25 09:52 55.52183 12.91153 2986 ft 171 kts 307°
2026-04-25 09:53 55.52881 12.89446 2972 ft 171 kts 305°
2026-04-25 09:53 55.53533 12.87755 2877 ft 161 kts 304°
2026-04-25 09:53 55.54133 12.86141 2678 ft 154 kts 303°
2026-04-25 09:53 55.54706 12.84606 2460 ft 143 kts 302°
2026-04-25 09:54 55.55226 12.83216 2278 ft 128 kts 301°
2026-04-25 09:54 55.55704 12.81935 2106 ft 127 kts 301°
2026-04-25 09:54 55.56199 12.80609 1917 ft 128 kts 301°
2026-04-25 09:54 55.56683 12.79311 1745 ft 128 kts 301°
2026-04-25 09:55 55.57174 12.77994 1558 ft 128 kts 301°
2026-04-25 09:55 55.57661 12.76686 1389 ft 127 kts 301°
2026-04-25 09:55 55.58144 12.75388 1208 ft 126 kts 301°
2026-04-25 09:55 55.58629 12.74086 1032 ft 127 kts 302°
2026-04-25 09:56 55.59118 12.72774 843 ft 128 kts 301°
2026-04-25 09:56 55.59609 12.71455 676 ft 129 kts 300°
2026-04-25 09:56 55.60107 12.70117 506 ft 132 kts 302°
2026-04-25 09:56 55.60625 12.68756 322 ft 132 kts 301°
2026-04-25 09:57 55.61108 12.67456 123 ft 120 kts 299°
2026-04-25 09:57 55.61539 12.66292 27 ft 103 kts 301°
2026-04-25 09:57 55.61831 12.65493 23 ft 56 kts 303°
2026-04-25 09:57 55.62010 12.65020 24 ft 20 kts 316°
2026-04-25 09:58 55.62022 12.65008 26 ft 1 kts 336°
2026-04-25 09:58 55.62039 12.64999 22 ft 6 kts 343°
2026-04-25 09:58 55.62078 12.65010 26 ft 6 kts 37°
2026-04-25 09:58 55.62137 12.65095 22 ft 15 kts 37°
2026-04-25 09:59 55.62235 12.65163 23 ft 11 kts 340°
2026-04-25 09:59 55.62279 12.65066 23 ft 10 kts 302°
2026-04-25 09:59 55.62327 12.64936 22 ft 16 kts 303°
2026-04-25 09:59 55.62398 12.64742 21 ft 21 kts 302°
2026-04-25 10:00 55.62477 12.64524 25 ft 21 kts 303°
2026-04-25 10:00 55.62554 12.64315 22 ft 18 kts 303°
2026-04-25 10:00 55.62569 12.64288 23 ft 1 kts 327°
2026-04-25 10:00 55.62577 12.64287 21 ft 1 kts 353°
2026-04-25 10:01 55.62590 12.64303 22 ft 4 kts 42°
2026-04-25 10:01 55.62605 12.64348 21 ft 5 kts 62°
2026-04-25 10:01 55.62621 12.64410 24 ft 6 kts 67°
2026-04-25 10:01 55.62623 12.64418 24 ft 0 kts 67°